WALDBURG Weather Reports


Display with metric or nautical units.
time (UTC)temp
F
wind
direction
speed
MPH
gust
MPH
rain 1hr
in
rain 24hr
in
rain mn
in
humidity
%
barometer
mb
20260506153210 48 239 22.0 0.0 0.00 0.00 0.21 94 1007.2
20260506150210 47 257 32.0 0.0 0.00 0.00 0.21 94 1006.6
20260506143210 48 282 41.0 0.0 0.00 0.00 0.09 91 1006.8
20260506140210 59 261 20.0 0.0 0.00 0.00 0.02 77 1004.8
20260506133211 60 222 11.0 0.0 0.00 0.00 0.02 80 1004.5
20260506130211 57 214 8.0 0.0 0.00 0.00 0.01 81 1004.2
20260506123210 58 225 8.0 0.0 0.00 0.00 0.01 79 1004.6
20260506120210 59 267 11.0 0.0 0.00 0.00 0.01 77 1004.2
20260506113217 60 86 2.0 0.0 0.00 0.00 0.01 69 1004.0
20260506110210 60 201 1.0 0.0 0.00 0.00 0.01 68 1004.4
20260506100213 58 96 7.0 0.0 0.00 0.00 0.01 75 1004.7
20260506093211 56 104 8.0 0.0 0.00 0.00 0.01 81 1004.8
20260506090211 56 242 4.0 0.0 0.00 0.00 0.01 85 1005.1
20260506083211 55 261 4.0 0.0 0.00 0.00 0.01 80 1005.2
20260506080212 54 109 5.0 0.0 0.00 0.00 0.01 83 1004.8
20260506073211 53 265 3.0 0.0 0.00 0.00 0.01 91 1005.2
20260506070212 52 57 2.0 0.0 0.00 0.00 0.01 93 1005.0
20260506060210 49 109 4.0 0.0 0.00 0.00 0.01 94 1005.4
20260506050211 47 59 3.0 0.0 0.00 0.00 0.01 93 1005.6
20260506043211 47 288 0.0 0.0 0.00 0.00 0.01 93 1005.6
20260506040211 47 238 0.0 0.0 0.00 0.00 0.00 92 1005.9
20260506033211 47 238 0.0 0.0 0.00 0.00 0.00 91 1006.1
20260506030212 48 303 2.0 0.0 0.00 0.00 0.00 91 1006.3
20260506023211 48 189 0.0 0.0 0.00 0.00 0.00 92 1006.7
20260506020212 48 189 0.0 0.0 0.00 0.00 0.00 93 1006.9
20260506013211 48 236 2.0 0.0 0.00 0.00 0.00 93 1007.0
20260506010213 48 289 2.0 0.0 0.00 0.00 0.00 93 1007.1
20260506003209 48 200 2.0 0.0 0.00 0.00 0.00 93 1007.7
20260506000211 49 243 2.0 0.0 0.00 0.00 0.00 92 1007.5
20260505233209 49 270 0.0 0.0 0.00 0.00 0.00 92 1008.0
20260505230209 49 282 6.0 0.0 0.00 0.00 0.00 92 1007.7
20260505223210 50 221 1.0 0.0 0.00 0.00 0.00 93 1008.2
20260505220209 50 212 2.0 0.0 0.00 0.00 0.00 93 1008.1
20260505213211 50 277 6.0 0.0 0.00 0.00 0.07 93 1008.1
20260505210215 50 248 0.0 0.0 0.00 0.00 0.07 93 1008.1
20260505203209 51 194 0.0 0.0 0.00 0.00 0.07 92 1008.3
20260505200210 51 182 4.0 0.0 0.00 0.00 0.07 92 1008.1
20260505193209 51 269 14.0 0.0 0.00 0.00 0.07 91 1008.1
20260505190215 52 269 14.0 0.0 0.00 0.00 0.06 90 1007.9
20260505183212 55 277 16.0 0.0 0.00 0.00 0.01 83 1007.5
20260505180211 57 275 11.0 0.0 0.00 0.00 0.01 82 1006.7
20260505173210 58 250 4.0 0.0 0.00 0.00 0.01 83 1006.4
20260505170210 58 281 7.0 0.0 0.00 0.00 0.01 85 1006.1
20260505163211 58 251 11.0 0.0 0.00 0.00 0.01 87 1005.9